SCP
0 0 0 0 0 0 0 0 0 0 0 0 0 0 0 0 0 0 0 0 0 0 0 0 0 0 0 0 0 0 0 0 0 0 0 0 0 0 0 0 0 0 0
0 0 0 0 0 0 0 0 0 0 0 0 0 0 0 0 0 0 0 0 0 0 0 0 0 0 0 0 0 0 0 0 0 0 0 0 0 0 0 0 0 0 0
0 0 0 0 0 0 0 0 0 0 0 0 0 0 0 0 0 0 0 0 0 0 0 0 0 0 0 0 0 0 0 0 0 0 0 0 0 0 0 0 0 0 0
0 0 0 0 0 0 0 0 0 0 0 0 0 0 0 0 0 0 0 0 0 0 0 0 0 0 0 0 0 0 0 0 0 0 0 0 0 0 0 0 0 0 0
0 0 0 0 0 0 0 0 0 0 0 0 0 0 0 0 0 0 0 0 0 0 0 0 0 0 0 0 0 0 0 0 0 0 0 0 0 0 0 0 0 0 0
0 0 0 0 0 0 0 0 0 0 0 0 0 0 0 0 0 0 0 0 0 0 0 0 0 0 0 0 0 0 0 0 0 0 0 0 0 0 0 0 0 0 0
0 0 0 0 0 0 0 0 0 0 0 0 0 0 0 0 0 0 0 0 0 0 0 0 0 0 0 0 0 0 0 0 0 0 0 0 0 0 0 0 0 0 0
0 0 0 0 0 0 0 0 0 0 0 0 0 0 0 0 0 0 0 0 0 0 0 0 0 0 0 0 0 0 0 0 0 0 0 0 0 0 0 0 0 0 0
0 0 0 0 0 0 0 0 0 0 0 0 0 0 0 0 0 0 0 0 0 0 0 0 0 0 0 0 0 0 0 0 0 0 0 0 0 0 0 0 0 0 0
0 0 0 0 0 0 0 0 0 0 0 0 0 0 0 0 0 0 0 0 0 0 0 0 0 0 0 0 0 0 0 0 0 0 0 0 0 0 0 0 0 0 0
0 0 0 0 0 0 0 0 0 0 0 0 0 0 0 0 0 0 0 0 0 0 0 0 0 0 0 0 0 0 0 0 0 0 0 0 0 0 0 0 0 0 0
0 0 0 0 0 0 0 0 0 0 0 0 0 0 0 0 0 0 0 0 0 0 0 0 0 0 0 0 0 0 0 0 0 0 0 0 0 0 0 0 0 0 0
0 0 0 0 0 0 0 0 0 0 0 0 0 0 0 0 0 0 0 0 0 0 0 0 0 0 0 0 0 0 0 0 0 0 0 0 0 0 0 0 0 0 0
0 0 0 0 0 0 0 0 0 0 0 0 0 0 0 0 0 0 0 0 0 0 0 0 0 0 0 0 0 0 0 0 0 0 0 0 0 0 0 0 0 0 0
0 0 0 0 0 0 0 0 0 0 0 0 0 0 0 0 0 0 0 0 0 0 0 0 0 0 0 0 0 0 0 0 0 0 0 0 0 0 0 0 0 0 0
0 0 0 0 0 0 0 0 0 0 0 0 0 0 0 0 0 0 0 0 0 0 0 0 0 0 0 0 0 0 0 0 0 0 0 0 0 0 0 0 0 0 0
0 0 0 0 0 0 0 0 0 0 0 0 0 0 0 0 0 0 0 0 0 0 0 0 0 0 0 0 0 0 0 0 0 0 0 0 0 0 0 0 0 0 0
0 0 0 0 0 0 0 0 0 0 0 0 0 0 0 0 0 0 0 0 0 0 0 0 0 0 0 0 0 0 0 0 0 0 0 0 0 0 0 0 0 0 0
0 0 0 0 0 0 0 0 0 0 0 0 0 0 0 0 0 0 0 0 0 0 0 0 0 0 0 0 0 0 0 0 0 0 0 0 0 0 0 0 0 0 0
0 0 0 0 0 0 0 0 0 0 0 0 0 0 0 0 0 0 0 0 0 0 0 0 0 0 0 0 0 0 0 0 0 0 0 0 0 0 0 0 0 0 0
0 0 0 0 0 0 0 0 0 0 0 0 0 0 0 0 0 0 0 0 0 0 0 0 0 0 0 0 0 0 0 0 0 0 0 0 0 0 0 0 0 0 0
0 0 0 0 0 0 0 0 0 0 0 0 0 0 0 0 0 0 0 0 0 0 0 0 0 0 0 0 0 0 0 0 0 0 0 0 0 0 0 0 0 0 0
0 0 0 0 0 0 0 0 0 0 0 0 0 0 0 0 0 0 0 0 0 0 0 0 0 0 0 0 0 0 0 0 0 0 0 0 0 0 0 0 0 0 0
0 0 0 0 0 0 0 0 0 0 0 0 0 0 0 0 0 0 0 0 0 0 0 0 0 0 0 0 0 0 0 0 0 0 0 0 0 0 0 0 0 0 0
0 0 0 0 0 0 0 0 0 0 0 0 0 0 0 0 0 0 0 0 0 0 0 0 0 0 0 0 0 0 0 0 0 0 0 0 0 0 0 0 0 0 0
0 0 0 0 0 0 0 0 0 0 0 0 0 0 0 0 0 0 0 0 0 0 0 0 0 0 0 0 0 0 0 0 0 0 0 0 0 0 0 0 0 0 0
Wind_Speed_500mb
6 13 23 25 32 38 43 48 54 56 59 59 57 58 59 63 66 79 84 84 91 84 89 89 88 85 86 90 85 80 68 65 57 51 57 45 44 44 48 45 44 41 41
16 25 29 31 35 37 40 42 47 54 55 54 55 55 55 56 60 66 70 79 83 83 85 92 89 86 84 85 77 70 73 70 58 62 49 49 48 40 38 42 43 42 43
37 38 43 44 44 41 43 47 49 52 54 53 55 55 54 55 59 58 64 68 71 82 81 75 80 81 85 84 75 74 68 61 61 52 47 46 40 39 41 41 42 46 41
47 54 56 59 55 49 47 51 53 52 52 54 53 53 53 52 54 58 62 66 70 70 72 77 80 80 80 72 69 63 54 62 59 50 41 35 39 37 39 43 44 40 45
54 59 61 56 60 56 56 59 59 57 54 53 54 54 54 56 56 58 62 65 67 68 71 70 72 69 62 58 58 57 57 64 58 49 38 35 35 36 44 42 37 42 41
59 64 61 59 58 58 59 58 60 60 56 56 56 55 55 54 53 57 61 63 64 65 65 64 63 58 57 56 44 39 62 66 55 41 34 32 36 37 45 39 35 44 47
65 61 55 51 56 59 59 59 59 57 55 53 52 54 54 49 53 57 57 58 56 56 57 56 56 60 50 51 41 57 59 51 37 35 34 29 32 38 37 35 44 44 50
59 58 57 59 60 59 59 57 55 55 54 51 50 49 50 45 53 55 51 46 44 46 51 52 53 51 57 51 57 63 66 53 46 42 21 22 33 42 41 45 48 54 59
51 54 57 57 54 51 51 51 50 50 49 49 46 45 47 45 49 51 52 47 46 44 43 44 55 57 46 58 68 74 60 49 43 17 26 22 31 42 48 45 54 57 63
44 43 45 47 47 45 44 46 46 45 44 44 42 42 43 43 44 41 40 37 41 45 51 54 40 42 50 59 65 63 63 42 27 34 24 26 31 40 50 54 53 57 58
39 38 37 38 38 38 40 41 40 41 41 39 39 39 40 39 36 32 32 33 37 37 46 51 57 60 61 60 64 60 40 39 32 33 31 33 33 40 47 55 58 62 61
41 35 31 29 30 31 31 32 34 34 33 32 30 32 31 33 31 29 28 30 25 29 35 44 50 57 54 64 72 56 47 30 41 39 40 47 44 50 54 52 48 52 54
39 32 28 26 26 26 26 25 24 24 23 21 22 21 21 22 22 21 25 39 30 16 19 25 35 44 54 66 57 57 52 49 53 56 60 57 59 62 61 52 49 49 47
38 37 32 26 22 20 20 19 18 18 18 18 18 18 20 19 19 18 26 35 29 19 14 19 27 36 44 46 50 52 55 59 60 62 62 64 69 61 60 53 48 46 49
40 35 30 27 21 17 19 18 22 24 21 19 21 20 19 17 15 18 25 36 31 19 16 21 30 39 45 48 52 57 61 64 62 66 64 69 63 58 58 54 51 49 51
43 34 27 21 19 22 24 27 26 22 20 20 20 18 18 18 16 19 26 31 21 19 22 27 33 35 37 39 43 47 54 57 55 55 56 55 54 53 53 54 51 52 55
34 24 20 18 19 16 23 26 27 25 19 13 14 15 14 14 16 16 22 26 27 23 22 22 20 23 27 31 32 36 43 48 46 48 50 48 47 49 51 56 58 56 55
26 22 22 21 20 19 16 18 21 23 25 25 19 17 18 14 13 15 16 21 25 27 30 30 27 27 29 32 34 37 41 43 48 52 43 41 46 49 53 55 56 56 51
22 22 19 22 26 26 23 21 21 23 24 22 18 16 12 9 11 13 14 14 16 19 21 21 24 29 32 34 37 41 46 50 49 43 40 43 46 50 55 56 54 51 50
24 21 22 20 19 21 24 21 17 14 10 7 6 7 7 9 8 8 10 13 16 19 25 25 29 33 35 37 39 42 44 44 44 44 45 46 48 50 49 50 51 51 49
27 28 22 19 22 22 19 17 14 11 9 7 6 5 2 3 4 4 4 5 8 13 18 21 24 28 32 36 39 41 44 44 44 45 46 46 47 49 50 51 52 46 45
23 21 18 16 16 17 16 13 11 9 9 9 7 3 2 3 6 7 10 12 15 20 24 27 31 34 37 40 42 44 45 45 45 46 47 48 49 51 52 52 45 45 45
23 20 19 21 21 19 14 12 11 11 9 7 6 6 7 10 12 16 20 21 25 29 32 35 37 39 41 42 44 44 45 43 44 45 47 47 48 48 46 44 43 44 43
22 21 19 19 18 15 13 12 9 7 7 9 11 11 14 18 21 25 29 32 34 35 37 40 43 44 45 45 46 46 46 44 45 46 45 45 43 42 43 44 43 42 41
22 21 20 17 15 13 11 8 8 10 13 16 18 21 24 27 29 32 36 39 41 42 43 44 45 47 48 47 46 45 46 46 44 42 42 42 42 43 45 44 43 42 42
19 16 13 12 10 9 9 12 15 18 20 23 26 29 31 33 37 39 42 45 46 47 47 47 47 46 45 45 45 45 45 43 43 43 43 44 45 46 46 45 44 44 44
Wind_Direction_500mb
355 294 273 264 260 258 259 261 262 265 267 266 263 258 254 251 243 241 246 248 248 255 257 256 257 255 253 243 242 242 238 235 245 248 239 234 225 224 229 232 237 248 255
271 288 277 267 265 266 268 265 262 263 266 269 264 259 255 250 245 246 250 249 250 251 257 255 254 253 246 240 240 233 228 237 239 236 229 219 216 221 226 231 238 249 252
275 285 276 268 265 270 273 271 268 267 266 267 262 258 255 253 251 249 250 251 253 256 255 255 255 250 243 241 237 236 232 236 229 233 221 212 217 219 223 231 240 248 256
277 284 281 270 269 268 271 272 272 272 268 266 261 256 254 252 250 250 251 252 255 254 255 258 254 249 245 242 237 227 219 227 224 214 209 217 217 221 226 234 241 258 258
284 284 284 276 268 267 270 273 275 274 270 265 258 253 252 252 251 249 250 252 255 256 254 254 250 245 244 241 226 217 221 219 210 206 213 211 217 226 239 237 258 254 254
282 287 281 273 263 266 272 272 271 271 268 261 257 254 254 254 255 253 252 254 255 254 254 249 244 236 231 229 219 216 219 211 200 212 213 226 237 241 235 251 251 256 260
286 281 275 270 268 272 273 272 270 268 265 261 258 254 254 257 255 254 254 256 256 254 249 243 240 235 228 218 201 208 205 202 218 229 236 251 249 260 257 241 250 259 267
282 278 273 271 273 273 272 270 266 264 262 261 258 255 255 257 256 253 254 257 258 257 253 250 241 239 228 205 203 205 204 219 229 235 257 290 284 274 258 249 252 259 264
283 277 275 274 271 269 268 267 264 260 259 260 258 252 253 255 255 254 252 251 251 249 241 233 231 237 212 210 213 203 214 235 226 251 271 281 281 275 277 268 264 266 271
279 273 269 268 267 266 262 259 257 255 254 254 251 247 250 254 255 256 254 250 247 241 234 235 225 216 208 210 210 220 230 222 246 253 273 295 295 285 282 283 273 269 274
281 275 268 264 263 260 258 258 257 253 250 247 243 241 244 246 247 244 246 245 242 240 234 224 210 222 218 219 220 220 234 256 250 276 282 285 284 286 292 287 275 269 272
283 278 272 268 267 264 259 253 248 244 239 236 232 235 241 246 248 243 229 237 233 235 231 232 224 210 199 209 214 224 231 247 268 269 284 283 285 298 304 294 280 269 268
284 280 279 280 277 271 262 251 242 238 232 224 219 220 232 239 239 231 208 221 235 245 234 223 216 208 230 225 215 221 244 259 263 274 281 280 295 300 297 287 278 270 262
285 281 280 276 268 262 253 232 212 201 196 189 187 180 192 202 210 209 198 203 230 240 212 202 204 210 209 213 217 227 240 254 266 274 274 283 292 292 294 288 276 267 264
276 274 270 257 245 230 208 190 176 164 155 161 159 157 157 166 179 180 187 191 204 200 196 194 203 205 209 216 227 235 243 248 261 270 272 284 289 290 287 281 269 257 259
268 260 253 247 218 192 181 171 163 157 157 153 147 144 145 145 147 159 168 177 184 191 208 213 213 220 225 231 238 243 249 260 268 274 282 284 285 285 280 264 250 256 268
253 236 214 205 201 196 180 172 173 165 159 158 165 161 164 164 150 153 164 166 178 196 224 228 239 253 260 262 262 264 270 276 278 279 282 281 279 277 267 260 264 266 271
236 213 196 186 177 180 186 174 181 168 162 164 169 169 167 160 160 166 168 176 188 201 215 231 246 261 269 274 277 278 277 275 277 283 281 271 268 266 265 263 265 269 267
232 202 178 191 183 182 187 179 183 174 172 178 177 182 180 156 166 179 178 197 193 212 226 237 248 254 258 262 268 271 275 278 282 282 277 269 265 262 264 265 263 262 265
209 219 210 199 196 202 200 191 194 194 190 180 167 154 156 147 149 158 184 203 219 232 242 246 257 265 271 273 276 278 279 282 283 281 278 274 270 267 264 262 263 265 270
219 219 201 209 215 202 189 186 186 186 181 175 197 208 207 162 142 166 212 233 252 259 267 274 278 281 282 283 284 285 285 284 283 280 276 274 270 268 267 264 264 264 264
200 190 197 213 216 212 205 198 193 199 196 193 202 234 311 308 299 297 297 297 291 287 288 290 290 290 291 291 289 287 285 283 280 278 275 272 268 267 265 264 264 262 262
208 209 205 212 217 216 212 206 202 195 203 219 241 263 282 294 307 310 304 301 298 298 298 297 295 294 293 290 288 286 284 281 278 275 274 272 269 268 267 266 263 261 262
200 201 208 211 213 211 207 203 208 219 239 263 273 288 301 305 307 302 297 296 295 295 295 295 294 291 289 287 285 282 280 278 277 277 276 273 271 269 266 264 263 262 262
191 191 196 202 203 207 213 226 249 270 282 284 292 301 305 305 301 297 297 298 297 297 296 294 292 291 290 288 286 284 281 279 278 279 277 273 271 268 267 265 263 262 260
182 183 188 200 215 239 264 278 284 286 289 296 304 306 303 300 297 296 295 295 294 294 293 292 292 291 290 288 286 283 281 279 278 278 276 274 271 269 269 268 265 263 261
Wind_Speed_850mb
6 13 23 25 32 38 43 48 54 56 59 59 57 58 59 63 66 79 84 84 91 84 89 89 88 85 86 90 85 80 68 65 57 51 57 45 44 44 48 45 44 41 41
16 25 29 31 35 37 40 42 47 54 55 54 55 55 55 56 60 66 70 79 83 83 85 92 89 86 84 85 77 70 73 70 58 62 49 49 48 40 38 42 43 42 43
37 38 43 44 44 41 43 47 49 52 54 53 55 55 54 55 59 58 64 68 71 82 81 75 80 81 85 84 75 74 68 61 61 52 47 46 40 39 41 41 42 46 41
47 54 56 59 55 49 47 51 53 52 52 54 53 53 53 52 54 58 62 66 70 70 72 77 80 80 80 72 69 63 54 62 59 50 41 35 39 37 39 43 44 40 45
54 59 61 56 60 56 56 59 59 57 54 53 54 54 54 56 56 58 62 65 67 68 71 70 72 69 62 58 58 57 57 64 58 49 38 35 35 36 44 42 37 42 41
59 64 61 59 58 58 59 58 60 60 56 56 56 55 55 54 53 57 61 63 64 65 65 64 63 58 57 56 44 39 62 66 55 41 34 32 36 37 45 39 35 44 47
65 61 55 51 56 59 59 59 59 57 55 53 52 54 54 49 53 57 57 58 56 56 57 56 56 60 50 51 41 57 59 51 37 35 34 29 32 38 37 35 44 44 50
59 58 57 59 60 59 59 57 55 55 54 51 50 49 50 45 53 55 51 46 44 46 51 52 53 51 57 51 57 63 66 53 46 42 21 22 33 42 41 45 48 54 59
51 54 57 57 54 51 51 51 50 50 49 49 46 45 47 45 49 51 52 47 46 44 43 44 55 57 46 58 68 74 60 49 43 17 26 22 31 42 48 45 54 57 63
44 43 45 47 47 45 44 46 46 45 44 44 42 42 43 43 44 41 40 37 41 45 51 54 40 42 50 59 65 63 63 42 27 34 24 26 31 40 50 54 53 57 58
39 38 37 38 38 38 40 41 40 41 41 39 39 39 40 39 36 32 32 33 37 37 46 51 57 60 61 60 64 60 40 39 32 33 31 33 33 40 47 55 58 62 61
41 35 31 29 30 31 31 32 34 34 33 32 30 32 31 33 31 29 28 30 25 29 35 44 50 57 54 64 72 56 47 30 41 39 40 47 44 50 54 52 48 52 54
39 32 28 26 26 26 26 25 24 24 23 21 22 21 21 22 22 21 25 39 30 16 19 25 35 44 54 66 57 57 52 49 53 56 60 57 59 62 61 52 49 49 47
38 37 32 26 22 20 20 19 18 18 18 18 18 18 20 19 19 18 26 35 29 19 14 19 27 36 44 46 50 52 55 59 60 62 62 64 69 61 60 53 48 46 49
40 35 30 27 21 17 19 18 22 24 21 19 21 20 19 17 15 18 25 36 31 19 16 21 30 39 45 48 52 57 61 64 62 66 64 69 63 58 58 54 51 49 51
43 34 27 21 19 22 24 27 26 22 20 20 20 18 18 18 16 19 26 31 21 19 22 27 33 35 37 39 43 47 54 57 55 55 56 55 54 53 53 54 51 52 55
34 24 20 18 19 16 23 26 27 25 19 13 14 15 14 14 16 16 22 26 27 23 22 22 20 23 27 31 32 36 43 48 46 48 50 48 47 49 51 56 58 56 55
26 22 22 21 20 19 16 18 21 23 25 25 19 17 18 14 13 15 16 21 25 27 30 30 27 27 29 32 34 37 41 43 48 52 43 41 46 49 53 55 56 56 51
22 22 19 22 26 26 23 21 21 23 24 22 18 16 12 9 11 13 14 14 16 19 21 21 24 29 32 34 37 41 46 50 49 43 40 43 46 50 55 56 54 51 50
24 21 22 20 19 21 24 21 17 14 10 7 6 7 7 9 8 8 10 13 16 19 25 25 29 33 35 37 39 42 44 44 44 44 45 46 48 50 49 50 51 51 49
27 28 22 19 22 22 19 17 14 11 9 7 6 5 2 3 4 4 4 5 8 13 18 21 24 28 32 36 39 41 44 44 44 45 46 46 47 49 50 51 52 46 45
23 21 18 16 16 17 16 13 11 9 9 9 7 3 2 3 6 7 10 12 15 20 24 27 31 34 37 40 42 44 45 45 45 46 47 48 49 51 52 52 45 45 45
23 20 19 21 21 19 14 12 11 11 9 7 6 6 7 10 12 16 20 21 25 29 32 35 37 39 41 42 44 44 45 43 44 45 47 47 48 48 46 44 43 44 43
22 21 19 19 18 15 13 12 9 7 7 9 11 11 14 18 21 25 29 32 34 35 37 40 43 44 45 45 46 46 46 44 45 46 45 45 43 42 43 44 43 42 41
22 21 20 17 15 13 11 8 8 10 13 16 18 21 24 27 29 32 36 39 41 42 43 44 45 47 48 47 46 45 46 46 44 42 42 42 42 43 45 44 43 42 42
19 16 13 12 10 9 9 12 15 18 20 23 26 29 31 33 37 39 42 45 46 47 47 47 47 46 45 45 45 45 45 43 43 43 43 44 45 46 46 45 44 44 44
Wind_Direction_850mb
355 294 273 264 260 258 259 261 262 265 267 266 263 258 254 251 243 241 246 248 248 255 257 256 257 255 253 243 242 242 238 235 245 248 239 234 225 224 229 232 237 248 255
271 288 277 267 265 266 268 265 262 263 266 269 264 259 255 250 245 246 250 249 250 251 257 255 254 253 246 240 240 233 228 237 239 236 229 219 216 221 226 231 238 249 252
275 285 276 268 265 270 273 271 268 267 266 267 262 258 255 253 251 249 250 251 253 256 255 255 255 250 243 241 237 236 232 236 229 233 221 212 217 219 223 231 240 248 256
277 284 281 270 269 268 271 272 272 272 268 266 261 256 254 252 250 250 251 252 255 254 255 258 254 249 245 242 237 227 219 227 224 214 209 217 217 221 226 234 241 258 258
284 284 284 276 268 267 270 273 275 274 270 265 258 253 252 252 251 249 250 252 255 256 254 254 250 245 244 241 226 217 221 219 210 206 213 211 217 226 239 237 258 254 254
282 287 281 273 263 266 272 272 271 271 268 261 257 254 254 254 255 253 252 254 255 254 254 249 244 236 231 229 219 216 219 211 200 212 213 226 237 241 235 251 251 256 260
286 281 275 270 268 272 273 272 270 268 265 261 258 254 254 257 255 254 254 256 256 254 249 243 240 235 228 218 201 208 205 202 218 229 236 251 249 260 257 241 250 259 267
282 278 273 271 273 273 272 270 266 264 262 261 258 255 255 257 256 253 254 257 258 257 253 250 241 239 228 205 203 205 204 219 229 235 257 290 284 274 258 249 252 259 264
283 277 275 274 271 269 268 267 264 260 259 260 258 252 253 255 255 254 252 251 251 249 241 233 231 237 212 210 213 203 214 235 226 251 271 281 281 275 277 268 264 266 271
279 273 269 268 267 266 262 259 257 255 254 254 251 247 250 254 255 256 254 250 247 241 234 235 225 216 208 210 210 220 230 222 246 253 273 295 295 285 282 283 273 269 274
281 275 268 264 263 260 258 258 257 253 250 247 243 241 244 246 247 244 246 245 242 240 234 224 210 222 218 219 220 220 234 256 250 276 282 285 284 286 292 287 275 269 272
283 278 272 268 267 264 259 253 248 244 239 236 232 235 241 246 248 243 229 237 233 235 231 232 224 210 199 209 214 224 231 247 268 269 284 283 285 298 304 294 280 269 268
284 280 279 280 277 271 262 251 242 238 232 224 219 220 232 239 239 231 208 221 235 245 234 223 216 208 230 225 215 221 244 259 263 274 281 280 295 300 297 287 278 270 262
285 281 280 276 268 262 253 232 212 201 196 189 187 180 192 202 210 209 198 203 230 240 212 202 204 210 209 213 217 227 240 254 266 274 274 283 292 292 294 288 276 267 264
276 274 270 257 245 230 208 190 176 164 155 161 159 157 157 166 179 180 187 191 204 200 196 194 203 205 209 216 227 235 243 248 261 270 272 284 289 290 287 281 269 257 259
268 260 253 247 218 192 181 171 163 157 157 153 147 144 145 145 147 159 168 177 184 191 208 213 213 220 225 231 238 243 249 260 268 274 282 284 285 285 280 264 250 256 268
253 236 214 205 201 196 180 172 173 165 159 158 165 161 164 164 150 153 164 166 178 196 224 228 239 253 260 262 262 264 270 276 278 279 282 281 279 277 267 260 264 266 271
236 213 196 186 177 180 186 174 181 168 162 164 169 169 167 160 160 166 168 176 188 201 215 231 246 261 269 274 277 278 277 275 277 283 281 271 268 266 265 263 265 269 267
232 202 178 191 183 182 187 179 183 174 172 178 177 182 180 156 166 179 178 197 193 212 226 237 248 254 258 262 268 271 275 278 282 282 277 269 265 262 264 265 263 262 265
209 219 210 199 196 202 200 191 194 194 190 180 167 154 156 147 149 158 184 203 219 232 242 246 257 265 271 273 276 278 279 282 283 281 278 274 270 267 264 262 263 265 270
219 219 201 209 215 202 189 186 186 186 181 175 197 208 207 162 142 166 212 233 252 259 267 274 278 281 282 283 284 285 285 284 283 280 276 274 270 268 267 264 264 264 264
200 190 197 213 216 212 205 198 193 199 196 193 202 234 311 308 299 297 297 297 291 287 288 290 290 290 291 291 289 287 285 283 280 278 275 272 268 267 265 264 264 262 262
208 209 205 212 217 216 212 206 202 195 203 219 241 263 282 294 307 310 304 301 298 298 298 297 295 294 293 290 288 286 284 281 278 275 274 272 269 268 267 266 263 261 262
200 201 208 211 213 211 207 203 208 219 239 263 273 288 301 305 307 302 297 296 295 295 295 295 294 291 289 287 285 282 280 278 277 277 276 273 271 269 266 264 263 262 262
191 191 196 202 203 207 213 226 249 270 282 284 292 301 305 305 301 297 297 298 297 297 296 294 292 291 290 288 286 284 281 279 278 279 277 273 271 268 267 265 263 262 260
182 183 188 200 215 239 264 278 284 286 289 296 304 306 303 300 297 296 295 295 294 294 293 292 292 291 290 288 286 283 281 279 278 278 276 274 271 269 269 268 265 263 261